When you browse on this site, cookies collect data to enhance your experience and personalize the content and advertising you see.
Visit our Privacy Policy to learn more. By continuing to use the site, you agree to this use of cookies and data.
  • In Latvia
  • List of Countries
  • For 7 days
  • Water Temperature
  • Satellite Maps
  • Weather Map
  • Weather Widgets
  • user-avatar
    Login

    Hourly Weather Draguseni

    Today, 25 March, Monday

    Time Temperature Precipitation Wind Pressure Humidity
    00:00 +10°C° 0 mm 1 mps 746 mmHg 74%
    01:00 +10°C° 0 mm 1 mps 745 mmHg 74%
    02:00 +9°C° 0 mm 1 mps 745 mmHg 73%
    03:00 +9°C° 0 mm 1 mps 744 mmHg 73%
    04:00 +8°C° 0 mm 1 mps 744 mmHg 74%
    05:00 +7°C° 0 mm 0 mps 743 mmHg 74%
    06:00 +9°C° 0 mm 1 mps 743 mmHg 71%
    07:00 +9°C° 0 mm 2 mps 742 mmHg 69%
    08:00 +9°C° 0 mm 3 mps 742 mmHg 66%
    09:00 +11°C° 0 mm 4 mps 741 mmHg 62%
    10:00 +14°C° 0 mm 5 mps 741 mmHg 57%
    11:00 +16°C° 0 mm 6 mps 740 mmHg 52%
    12:00 +17°C° 0.3 mm 6 mps 740 mmHg 48%
    13:00 +19°C° 0.3 mm 5 mps 739 mmHg 44%
    14:00 +20°C° 0.3 mm 5 mps 739 mmHg 40%
    15:00 +19°C° 0.1 mm 5 mps 739 mmHg 44%
    16:00 +18°C° 0.1 mm 4 mps 738 mmHg 49%
    17:00 +17°C° 0.1 mm 4 mps 738 mmHg 53%
    18:00 +14°C° 0 mm 4 mps 738 mmHg 62%
    19:00 +13°C° 0 mm 3 mps 739 mmHg 71%
    20:00 +11°C° 0 mm 3 mps 739 mmHg 80%
    21:00 +10°C° 0 mm 3 mps 739 mmHg 80%
    22:00 +9°C° 0 mm 3 mps 740 mmHg 81%
    23:00 +9°C° 0 mm 3 mps 740 mmHg 81%

    Tomorrow, 26 March, Tuesday

    Time Temperature Precipitation Wind Pressure Humidity
    00:00 +8°C° 0 mm 3 mps 740 mmHg 81%
    01:00 +7°C° 0 mm 3 mps 741 mmHg 80%
    02:00 +7°C° 0 mm 3 mps 741 mmHg 80%
    03:00 +5°C° 0 mm 3 mps 741 mmHg 80%
    04:00 +5°C° 0 mm 3 mps 741 mmHg 80%
    05:00 +5°C° 0 mm 2 mps 742 mmHg 80%
    06:00 +5°C° 0 mm 3 mps 742 mmHg 77%
    07:00 +7°C° 0 mm 3 mps 743 mmHg 75%
    08:00 +6°C° 0 mm 4 mps 743 mmHg 72%
    09:00 +7°C° 0 mm 5 mps 744 mmHg 65%
    10:00 +8°C° 0 mm 5 mps 744 mmHg 59%
    11:00 +9°C° 0 mm 6 mps 744 mmHg 53%
    12:00 +9°C° 0 mm 6 mps 744 mmHg 50%
    13:00 +10°C° 0 mm 5 mps 745 mmHg 47%
    14:00 +10°C° 0 mm 5 mps 745 mmHg 44%
    15:00 +10°C° 0 mm 5 mps 744 mmHg 43%
    16:00 +10°C° 0 mm 5 mps 744 mmHg 43%
    17:00 +10°C° 0 mm 5 mps 744 mmHg 42%
    18:00 +10°C° 0 mm 4 mps 745 mmHg 46%
    19:00 +8°C° 0 mm 3 mps 745 mmHg 50%
    20:00 +7°C° 0 mm 2 mps 745 mmHg 53%
    21:00 +7°C° 0 mm 2 mps 746 mmHg 54%
    22:00 +6°C° 0 mm 2 mps 746 mmHg 55%
    23:00 +6°C° 0 mm 2 mps 746 mmHg 56%

    Day after tomorrow, 27 March, Wednesday

    Time Temperature Precipitation Wind Pressure Humidity
    00:00 +5°C° 0 mm 2 mps 746 mmHg 57%
    01:00 +5°C° 0 mm 2 mps 746 mmHg 58%
    02:00 +5°C° 0 mm 2 mps 746 mmHg 59%
    03:00 +4°C° 0.2 mm 3 mps 746 mmHg 60%
    04:00 +3°C° 0.2 mm 5 mps 746 mmHg 61%
    05:00 +3°C° 0.2 mm 6 mps 746 mmHg 62%
    06:00 +2°C° 0 mm 7 mps 747 mmHg 56%
    07:00 0°C° 0 mm 8 mps 748 mmHg 50%
    08:00 -1°C° 0 mm 9 mps 748 mmHg 44%
    09:00 +1°C° 0 mm 9 mps 749 mmHg 45%
    10:00 +2°C° 0 mm 9 mps 750 mmHg 46%
    11:00 +3°C° 0 mm 9 mps 750 mmHg 47%
    12:00 +3°C° 0 mm 9 mps 750 mmHg 45%
    13:00 +5°C° 0 mm 8 mps 751 mmHg 43%
    14:00 +6°C° 0 mm 8 mps 751 mmHg 40%
    15:00 +5°C° 0 mm 8 mps 751 mmHg 39%
    16:00 +5°C° 0 mm 8 mps 751 mmHg 38%
    17:00 +5°C° 0 mm 8 mps 751 mmHg 37%
    18:00 +4°C° 0 mm 6 mps 752 mmHg 41%
    19:00 +3°C° 0 mm 5 mps 752 mmHg 45%
    20:00 +3°C° 0 mm 4 mps 753 mmHg 49%
    21:00 +1°C° 0 mm 4 mps 753 mmHg 51%
    22:00 +2°C° 0 mm 3 mps 754 mmHg 53%
    23:00 +1°C° 0 mm 3 mps 754 mmHg 55%

    28 March, Thursday

    Time Temperature Precipitation Wind Pressure Humidity
    00:00 +1°C° 0 mm 3 mps 754 mmHg 57%
    01:00 0°C° 0 mm 3 mps 755 mmHg 59%
    02:00 0°C° 0 mm 3 mps 755 mmHg 62%
    03:00 0°C° 0 mm 3 mps 755 mmHg 64%
    04:00 -1°C° 0 mm 3 mps 755 mmHg 66%
    05:00 -1°C° 0 mm 3 mps 755 mmHg 69%
    06:00 0°C° 0 mm 3 mps 755 mmHg 65%
    07:00 -1°C° 0 mm 4 mps 756 mmHg 61%
    08:00 0°C° 0 mm 5 mps 756 mmHg 57%
    09:00 +1°C° 0 mm 5 mps 756 mmHg 51%
    10:00 +2°C° 0 mm 5 mps 757 mmHg 45%
    11:00 +5°C° 0 mm 5 mps 757 mmHg 40%
    12:00 +5°C° 0 mm 5 mps 757 mmHg 39%
    13:00 +5°C° 0 mm 5 mps 757 mmHg 38%
    14:00 +5°C° 0 mm 5 mps 757 mmHg 37%
    15:00 +5°C° 0 mm 4 mps 756 mmHg 37%
    16:00 +5°C° 0 mm 4 mps 756 mmHg 37%
    17:00 +5°C° 0 mm 4 mps 756 mmHg 37%
    18:00 +4°C° 0 mm 4 mps 757 mmHg 41%
    19:00 +3°C° 0 mm 3 mps 757 mmHg 45%
    20:00 +3°C° 0 mm 2 mps 758 mmHg 48%
    21:00 +3°C° 0 mm 2 mps 758 mmHg 50%
    22:00 +3°C° 0 mm 1 mps 758 mmHg 51%
    23:00 +3°C° 0 mm 1 mps 758 mmHg 53%

    29 March, Friday

    Time Temperature Precipitation Wind Pressure Humidity
    00:00 +3°C° 0 mm 1 mps 758 mmHg 54%
    01:00 +2°C° 0 mm 1 mps 758 mmHg 54%
    02:00 +2°C° 0 mm 1 mps 758 mmHg 55%
    03:00 +2°C° 0 mm 1 mps 758 mmHg 56%
    04:00 +1°C° 0 mm 1 mps 758 mmHg 57%
    05:00 +1°C° 0 mm 1 mps 758 mmHg 58%
    06:00 +1°C° 0 mm 2 mps 758 mmHg 54%
    07:00 +2°C° 0 mm 2 mps 758 mmHg 50%
    08:00 +3°C° 0 mm 2 mps 758 mmHg 47%
    09:00 +4°C° 0 mm 3 mps 757 mmHg 42%
    10:00 +5°C° 0 mm 3 mps 757 mmHg 37%
    11:00 +7°C° 0 mm 4 mps 757 mmHg 32%
    12:00 +7°C° 0 mm 4 mps 756 mmHg 32%
    13:00 +8°C° 0 mm 4 mps 756 mmHg 32%
    14:00 +10°C° 0 mm 4 mps 755 mmHg 32%
    15:00 +9°C° 0 mm 5 mps 755 mmHg 35%
    16:00 +9°C° 0 mm 5 mps 754 mmHg 38%
    17:00 +9°C° 0 mm 5 mps 753 mmHg 41%
    18:00 +8°C° 0 mm 4 mps 753 mmHg 47%
    19:00 +7°C° 0 mm 4 mps 753 mmHg 52%
    20:00 +7°C° 0 mm 3 mps 753 mmHg 58%
    21:00 +7°C° 0 mm 3 mps 753 mmHg 61%
    22:00 +5°C° 0 mm 3 mps 753 mmHg 65%
    23:00 +5°C° 0 mm 4 mps 753 mmHg 68%

    30 March, Saturday

    Time Temperature Precipitation Wind Pressure Humidity
    00:00 +5°C° 0 mm 4 mps 752 mmHg 71%
    01:00 +5°C° 0 mm 5 mps 752 mmHg 75%
    02:00 +5°C° 0 mm 5 mps 752 mmHg 78%
    03:00 +3°C° 0 mm 5 mps 752 mmHg 80%
    04:00 +3°C° 0 mm 5 mps 751 mmHg 82%
    05:00 +3°C° 0 mm 5 mps 751 mmHg 84%
    06:00 +3°C° 0 mm 5 mps 752 mmHg 81%
    07:00 +5°C° 0 mm 5 mps 752 mmHg 78%
    08:00 +6°C° 0 mm 5 mps 752 mmHg 75%
    09:00 +7°C° 0 mm 5 mps 752 mmHg 69%
    10:00 +9°C° 0 mm 5 mps 752 mmHg 63%
    11:00 +12°C° 0 mm 5 mps 752 mmHg 58%
    12:00 +13°C° 0 mm 6 mps 751 mmHg 55%
    13:00 +13°C° 0 mm 6 mps 751 mmHg 51%
    14:00 +14°C° 0 mm 6 mps 750 mmHg 48%
    15:00 +14°C° 0 mm 6 mps 750 mmHg 48%
    16:00 +14°C° 0 mm 5 mps 750 mmHg 48%
    17:00 +14°C° 0 mm 5 mps 749 mmHg 48%
    18:00 +13°C° 0 mm 4 mps 749 mmHg 53%
    19:00 +12°C° 0 mm 3 mps 749 mmHg 58%
    20:00 +12°C° 0 mm 2 mps 749 mmHg 63%
    21:00 +10°C° 0 mm 2 mps 749 mmHg 65%
    22:00 +10°C° 0 mm 1 mps 749 mmHg 66%
    23:00 +10°C° 0 mm 1 mps 749 mmHg 68%
    Show more